Orbital Elements at Epoch 2459200.5 (2020-Dec-17.0) TDB
Reference: JPL 15 (heliocentric ecliptic J2000)
Element | Value | Uncertainty (1-sigma) | Units |
e | .1491953671645782 | 4.5933e-08 | |
a | 3.175159955660352 | 3.1148e-08 | au |
q | 2.70144080026934 | 1.4223e-07 | au |
i | 1.449864741412345 | 5.0334e-06 | deg |
node | 114.0491847374015 | 0.00020338 | deg |
peri | 97.68852635217593 | 0.00020419 | deg |
M | 191.211734903784 | 1.9188e-05 | deg |
tp | 2460169.417028169268 (2023-Aug-12.91702817) | 0.00011822 | TDB |
period | 2066.554389560796 5.66 | 3.0409e-05 8.326e-08 | d yr |
n | .1742030124242269 | 2.5633e-09 | deg/d |
Q | 3.648879111051365 | 3.5795e-08 | au |
|
| | Orbit Determination Parameters
Additional Information
|